Flag for Spain Weather past 2 weeks in Barcelona, Barcelona, Spain

48 °F


Feels Like: 44 °F
Forecast: 39 / 60 °F
Wind: 9 mph from Northwest

Location: Barcelona Airport

Current Time: Nov 30, 2015 at 12:22:10 AM

Latest Report: Nov 29, 2015 at 11:00 PM

Visibility: 10 mi

Pressure: 30.57 "Hg

Humidity: 71%

Dew point: 39 °F

Location of BarcelonaLocation

Historic Weather in Barcelona — Graph


Barcelona temperature yesterday

Maximum temperature yesterday: 59 °F (at 2:30 PM)
Minimum temperature yesterday: 45 °F (at 7:00 AM)
Average temperature yesterday: 50 °F

Past Weeks' High & Low Weather Summary

High72 °F (Nov 16, 2:00 PM)93% (Nov 26, 1:00 AM)30.57 "Hg (Nov 26, 1:00 AM)
Low36 °F (Nov 24, 7:30 AM)23% (Nov 21, 5:30 PM)29.56 "Hg (Nov 21, 8:00 AM)
Average53 °F64%30.11 "Hg
* Reported Nov 14 11:00 PM — Nov 29 11:00 PM, Barcelona, Weather by CustomWeather, © 2015

Note: Actual official high and low records may vary slightly from our data, if they occured in-between our weather recording intervals... More about our weather records


Barcelona weather history for previous 24 hours

Time TempWeatherWind HumidityBarometerVisibility
11:00 PM
Sun, Nov 29
48 °FClear.9 mph71%30.57 "Hg10 mi
10:30 PM48 °FPassing clouds.8 mph71%30.57 "HgN/A
10:00 PM48 °FPassing clouds.8 mph71%30.54 "HgN/A
9:30 PM48 °FClear.2 mph71%30.54 "Hg10 mi
9:00 PM48 °FPassing clouds.5 mph71%30.54 "HgN/A
8:30 PM48 °FPassing clouds.3 mph76%30.54 "HgN/A
8:00 PM48 °FClear.2 mph76%30.54 "Hg10 mi
7:30 PM48 °FPassing clouds.6 mph76%30.51 "HgN/A
7:00 PM50 °FPassing clouds.7 mph71%30.51 "HgN/A
6:30 PM50 °FPassing clouds.5 mph71%30.51 "HgN/A
6:00 PM52 °FClear.9 mph67%30.51 "Hg10 mi
5:30 PM52 °FClear.8 mph67%30.51 "Hg10 mi
5:00 PM55 °FSunny.9 mph63%30.51 "Hg10 mi
4:30 PM55 °FSunny.7 mph59%30.51 "Hg10 mi
4:00 PM55 °FSunny.7 mph59%30.48 "Hg10 mi
3:30 PM57 °FPassing clouds.6 mph55%30.48 "HgN/A
3:00 PM57 °FPassing clouds.3 mph55%30.48 "HgN/A
2:30 PM59 °FPassing clouds.5 mph45%30.48 "HgN/A
2:00 PM57 °FPassing clouds.8 mph48%30.48 "HgN/A
1:30 PM55 °FPassing clouds.9 mph51%30.48 "HgN/A
1:00 PM55 °FPassing clouds.10 mph51%30.51 "HgN/A
12:30 PM54 °FPassing clouds.14 mph54%30.51 "HgN/A
12:00 PM54 °FPassing clouds.13 mph54%30.51 "HgN/A
11:30 AM52 °FPassing clouds.15 mph58%30.51 "HgN/A
10:30 AM48 °FPassing clouds.16 mph66%30.51 "HgN/A
10:00 AM46 °FPassing clouds.15 mph71%30.48 "HgN/A
9:30 AM46 °FPassing clouds.17 mph71%30.48 "HgN/A
9:00 AM45 °FPassing clouds.16 mph71%30.48 "HgN/A
8:30 AM45 °FScattered clouds.15 mph71%30.45 "HgN/A
8:00 AM45 °FScattered clouds.15 mph71%30.42 "HgN/A
7:30 AM45 °FPassing clouds.16 mph71%30.42 "HgN/A
7:00 AM45 °FPassing clouds.14 mph71%30.42 "HgN/A
6:00 AM46 °FPassing clouds.16 mph66%30.39 "HgN/A
5:30 AM46 °FPassing clouds.14 mph66%30.36 "HgN/A
5:00 AM46 °FPassing clouds.17 mph66%30.36 "HgN/A
4:30 AM48 °FPassing clouds.16 mph62%30.36 "HgN/A
4:00 AM48 °FPassing clouds.15 mph62%30.36 "HgN/A
3:30 AM48 °FPassing clouds.17 mph62%30.36 "HgN/A
3:00 AM48 °FPassing clouds.17 mph66%30.36 "HgN/A
2:30 AM48 °FPassing clouds.17 mph66%30.36 "HgN/A
2:00 AM48 °FPassing clouds.16 mph66%30.33 "HgN/A
1:30 AM48 °FPassing clouds.15 mph66%30.33 "HgN/A
1:00 AM48 °FPassing clouds.14 mph66%30.33 "HgN/A
12:30 AM48 °FPassing clouds.15 mph71%30.33 "HgN/A
12:00 AM46 °FPassing clouds.9 mph82%30.33 "HgN/A
Weather by CustomWeather, © 2015

See weather overviewHow to use our weather pages